Terminal Aerodrome Forecast
Issued by NWS Pittsburgh, PA

Current Version | Previous Version | Graphics & Text | Print | Product List | Glossary On
Versions: 1 2 3 4 5 6 7 8 9 10 11 12 13 14 15 16 17 18 19 20 21 22 23 24 25 26 27 28 29 30
000
FTUS41 KPBZ 020600 AAA
TAFPIT
TAF AMD
KPIT 020618Z 0206/0312 27008KT P6SM OVC010
      TEMPO 0206/0210 5SM -SN OVC007
     FM021600 28008KT P6SM BKN025
     FM022300 VRB03KT P6SM SCT250
     FM030900 VRB05KT P6SM OVC120=

USA.gov is the U.S. government's official web portal to all federal, state and local government web resources and services.